EAG5510 SBSV-SBGL

Flight info

Callsign EAG5510
Flight time N/A
Altitude 32000
Route IRUMI UN857 MOLSU
Aircraft B738/M-SDE2E3FGHIRWXY/LB1

Departure

Time 2026-04-29 15:45
Airport Deputado Luiz Eduardo Magalhães International Airport (SBSV)

Arrival

Time N/A
Airport Rio Galeão – Tom Jobim International Airport (SBGL)
Time Latitude Longitude Altitude Speed Heading
2026-04-29 15:25 -12.91344 -38.33316 41 ft 0 kts 169°
2026-04-29 15:40 -12.91327 -38.33320 39 ft 4 kts 159°
2026-04-29 15:40 -12.91305 -38.33334 39 ft 4 kts 128°
2026-04-29 15:40 -12.91297 -38.33355 39 ft 2 kts 83°
2026-04-29 15:40 -12.91297 -38.33356 39 ft 6 kts 83°
2026-04-29 15:42 -12.91295 -38.33344 40 ft 4 kts 77°
2026-04-29 15:43 -12.91269 -38.33317 41 ft 7 kts 19°
2026-04-29 15:43 -12.91227 -38.33332 41 ft 7 kts 320°
2026-04-29 15:43 -12.91203 -38.33371 40 ft 7 kts 292°
2026-04-29 15:43 -12.91186 -38.33417 37 ft 7 kts 291°
2026-04-29 15:44 -12.91187 -38.33468 38 ft 7 kts 260°
2026-04-29 15:44 -12.91194 -38.33521 37 ft 8 kts 268°
2026-04-29 15:44 -12.91155 -38.33574 36 ft 11 kts 355°
2026-04-29 15:44 -12.91113 -38.33518 37 ft 11 kts 77°
2026-04-29 15:45 -12.91068 -38.33296 39 ft 66 kts 78°
2026-04-29 15:45 -12.90929 -38.32610 53 ft 128 kts 78°
2026-04-29 15:45 -12.90718 -38.31540 138 ft 174 kts 79°
2026-04-29 15:45 -12.90482 -38.30337 1023 ft 165 kts 80°
2026-04-29 15:46 -12.90249 -38.29173 1801 ft 168 kts 81°
2026-04-29 15:46 -12.90242 -38.27904 2172 ft 193 kts 113°
2026-04-29 15:46 -12.91210 -38.26870 2401 ft 219 kts 155°
2026-04-29 15:46 -12.92755 -38.26450 2691 ft 243 kts 165°
2026-04-29 15:47 -12.94460 -38.26058 3221 ft 256 kts 166°
2026-04-29 15:47 -12.96198 -38.25643 4073 ft 258 kts 164°
2026-04-29 15:47 -12.97955 -38.25202 4908 ft 261 kts 164°
2026-04-29 15:47 -12.99722 -38.24744 5732 ft 264 kts 164°
2026-04-29 15:48 -13.01517 -38.24266 6496 ft 268 kts 163°
2026-04-29 15:48 -13.03332 -38.23776 7256 ft 271 kts 163°
2026-04-29 15:48 -13.05170 -38.23275 7996 ft 275 kts 163°
2026-04-29 15:48 -13.07035 -38.22762 8732 ft 280 kts 163°
2026-04-29 15:49 -13.08929 -38.22241 9488 ft 284 kts 163°
2026-04-29 15:49 -13.10848 -38.21711 10212 ft 288 kts 163°
2026-04-29 15:49 -13.12843 -38.21159 10498 ft 309 kts 163°
2026-04-29 15:49 -13.15007 -38.20749 10641 ft 334 kts 176°
2026-04-29 15:50 -13.17399 -38.20808 10807 ft 355 kts 181°
2026-04-29 15:50 -13.19934 -38.20956 10947 ft 374 kts 181°
2026-04-29 15:50 -13.22576 -38.21130 11227 ft 385 kts 181°
2026-04-29 15:50 -13.25278 -38.21306 11698 ft 391 kts 181°
2026-04-29 15:51 -13.28001 -38.21475 12243 ft 393 kts 181°
2026-04-29 15:51 -13.30757 -38.21638 12763 ft 397 kts 180°
2026-04-29 15:51 -13.33524 -38.21793 13244 ft 401 kts 180°
2026-04-29 15:51 -13.36326 -38.21946 13713 ft 404 kts 180°
2026-04-29 15:52 -13.39114 -38.22095 14146 ft 407 kts 180°
2026-04-29 15:52 -13.41989 -38.22247 14589 ft 410 kts 180°
2026-04-29 15:52 -13.44815 -38.22396 15011 ft 412 kts 180°
2026-04-29 15:52 -13.47693 -38.22548 15415 ft 415 kts 180°
2026-04-29 15:53 -13.50586 -38.22700 15822 ft 418 kts 180°
2026-04-29 15:53 -13.53496 -38.22853 16217 ft 420 kts 180°
2026-04-29 15:53 -13.56430 -38.23007 16601 ft 423 kts 180°
2026-04-29 15:53 -13.59378 -38.23162 16971 ft 426 kts 180°
2026-04-29 15:54 -13.62355 -38.23319 17342 ft 428 kts 180°
2026-04-29 15:54 -13.65339 -38.23476 17697 ft 431 kts 180°
2026-04-29 15:54 -13.68348 -38.23635 18032 ft 433 kts 179°
2026-04-29 15:54 -13.71374 -38.23794 18372 ft 436 kts 180°
2026-04-29 15:55 -13.74376 -38.23953 18661 ft 438 kts 180°
2026-04-29 15:55 -13.77425 -38.24114 18969 ft 440 kts 180°
2026-04-29 15:55 -13.80487 -38.24276 19267 ft 441 kts 180°
2026-04-29 15:55 -13.83481 -38.24434 19551 ft 443 kts 180°
2026-04-29 15:56 -13.86572 -38.24597 19834 ft 445 kts 180°
2026-04-29 15:56 -13.89674 -38.24761 20117 ft 447 kts 180°
2026-04-29 15:56 -13.92790 -38.24926 20409 ft 449 kts 180°
2026-04-29 15:56 -13.95925 -38.25092 20690 ft 451 kts 180°
2026-04-29 15:57 -13.99065 -38.25258 20964 ft 453 kts 180°
2026-04-29 15:57 -14.02221 -38.25425 21230 ft 455 kts 180°
2026-04-29 15:57 -14.05396 -38.25592 21492 ft 457 kts 180°
2026-04-29 15:57 -14.08579 -38.25761 21767 ft 458 kts 180°
2026-04-29 15:58 -14.11769 -38.25930 22027 ft 460 kts 180°
2026-04-29 15:58 -14.14974 -38.26100 22284 ft 462 kts 180°
2026-04-29 15:58 -14.18189 -38.26270 22536 ft 464 kts 180°
2026-04-29 15:58 -14.21376 -38.26439 22787 ft 465 kts 180°
2026-04-29 15:59 -14.24620 -38.26610 23022 ft 467 kts 180°
2026-04-29 15:59 -14.27871 -38.26783 23262 ft 469 kts 180°
2026-04-29 15:59 -14.31134 -38.26956 23491 ft 471 kts 180°
2026-04-29 15:59 -14.34420 -38.27130 23700 ft 472 kts 180°
2026-04-29 16:00 -14.37714 -38.27305 23901 ft 473 kts 180°
2026-04-29 16:00 -14.41003 -38.27480 24105 ft 474 kts 180°
2026-04-29 16:00 -14.44308 -38.27655 24308 ft 475 kts 180°
2026-04-29 16:00 -14.47612 -38.27831 24505 ft 476 kts 180°
2026-04-29 16:01 -14.50927 -38.28007 24692 ft 477 kts 180°
2026-04-29 16:01 -14.54203 -38.28181 24879 ft 478 kts 181°
2026-04-29 16:01 -14.57533 -38.28358 25063 ft 480 kts 181°
2026-04-29 16:01 -14.60867 -38.28535 25248 ft 481 kts 181°
2026-04-29 16:02 -14.64213 -38.28713 25430 ft 482 kts 181°
2026-04-29 16:02 -14.67564 -38.28891 25606 ft 483 kts 181°
2026-04-29 16:02 -14.70922 -38.29070 25780 ft 484 kts 181°
2026-04-29 16:02 -14.74287 -38.29249 25950 ft 485 kts 181°
2026-04-29 16:03 -14.77659 -38.29429 26122 ft 486 kts 181°
2026-04-29 16:03 -14.81038 -38.29609 26289 ft 487 kts 181°
2026-04-29 16:03 -14.84422 -38.29789 26453 ft 488 kts 181°
2026-04-29 16:03 -14.87818 -38.29970 26615 ft 489 kts 181°
2026-04-29 16:04 -14.91219 -38.30151 26769 ft 490 kts 181°
2026-04-29 16:04 -14.94626 -38.30333 26926 ft 490 kts 181°
2026-04-29 16:04 -14.98041 -38.30515 27101 ft 491 kts 181°
2026-04-29 16:04 -15.01434 -38.30902 27305 ft 492 kts 192°
2026-04-29 16:05 -15.04626 -38.32184 27558 ft 494 kts 206°
2026-04-29 16:05 -15.07649 -38.33843 27900 ft 491 kts 207°
2026-04-29 16:05 -15.10647 -38.35528 28163 ft 490 kts 207°
2026-04-29 16:05 -15.13645 -38.37214 28380 ft 490 kts 207°
2026-04-29 16:06 -15.16642 -38.38882 28611 ft 490 kts 207°
2026-04-29 16:06 -15.19652 -38.40540 28911 ft 488 kts 207°
2026-04-29 16:06 -15.22646 -38.42176 29228 ft 486 kts 206°
2026-04-29 16:06 -15.25637 -38.43802 29531 ft 485 kts 206°
2026-04-29 16:07 -15.28585 -38.45402 29809 ft 484 kts 206°
2026-04-29 16:07 -15.30598 -38.46494 30003 ft 483 kts 206°
2026-04-29 16:07 -15.34536 -38.48632 30366 ft 481 kts 207°
2026-04-29 16:07 -15.37495 -38.50240 30643 ft 480 kts 207°
2026-04-29 16:08 -15.40446 -38.51845 30905 ft 479 kts 207°
2026-04-29 16:08 -15.43399 -38.53452 31154 ft 478 kts 207°
2026-04-29 16:08 -15.46337 -38.55052 31423 ft 477 kts 207°
2026-04-29 16:08 -15.49270 -38.56649 31709 ft 475 kts 207°
2026-04-29 16:09 -15.51204 -38.57703 31897 ft 474 kts 207°
2026-04-29 16:09 -15.54126 -38.59296 32046 ft 474 kts 207°
2026-04-29 16:09 -15.57051 -38.60890 32038 ft 475 kts 207°
2026-04-29 16:10 -15.62903 -38.64081 32051 ft 477 kts 207°
2026-04-29 16:10 -15.68805 -38.67302 32053 ft 481 kts 207°
2026-04-29 16:11 -15.74751 -38.70550 32046 ft 483 kts 207°
2026-04-29 16:11 -15.80713 -38.73809 32043 ft 484 kts 207°
2026-04-29 16:12 -15.86677 -38.77070 32046 ft 484 kts 207°
2026-04-29 16:12 -15.92609 -38.80314 32043 ft 484 kts 207°
2026-04-29 16:13 -15.98572 -38.83579 32046 ft 483 kts 207°
2026-04-29 16:13 -16.04520 -38.86838 32045 ft 483 kts 207°
2026-04-29 16:14 -16.10460 -38.90095 32049 ft 482 kts 207°
2026-04-29 16:14 -16.16401 -38.93355 32046 ft 482 kts 207°
2026-04-29 16:15 -16.22330 -38.96611 32055 ft 482 kts 207°
2026-04-29 16:15 -16.28240 -38.99804 32051 ft 481 kts 206°
2026-04-29 16:16 -16.34214 -39.02971 32048 ft 481 kts 206°
2026-04-29 16:16 -16.40180 -39.06150 32049 ft 481 kts 206°
2026-04-29 16:17 -16.46135 -39.09348 32047 ft 481 kts 207°
2026-04-29 16:17 -16.52039 -39.12654 32045 ft 481 kts 208°
2026-04-29 16:18 -16.57925 -39.15988 32049 ft 481 kts 207°
2026-04-29 16:18 -16.63820 -39.19315 32048 ft 482 kts 207°
2026-04-29 16:19 -16.69681 -39.22613 32057 ft 482 kts 207°
2026-04-29 16:19 -16.75583 -39.25933 32061 ft 482 kts 207°
2026-04-29 16:20 -16.81487 -39.29259 32060 ft 482 kts 207°
2026-04-29 16:20 -16.87390 -39.32586 32059 ft 482 kts 208°
2026-04-29 16:21 -16.93299 -39.35920 32068 ft 482 kts 208°
2026-04-29 16:21 -16.99208 -39.39256 32058 ft 483 kts 208°
2026-04-29 16:22 -17.05111 -39.42590 32057 ft 483 kts 208°
2026-04-29 16:22 -17.11024 -39.45929 32057 ft 483 kts 208°
2026-04-29 16:23 -17.16936 -39.49270 32064 ft 483 kts 208°
2026-04-29 16:23 -17.22810 -39.52593 32061 ft 483 kts 208°
2026-04-29 16:24 -17.28714 -39.55936 32061 ft 483 kts 208°
2026-04-29 16:24 -17.34623 -39.59284 32060 ft 483 kts 208°
2026-04-29 16:25 -17.40529 -39.62633 32068 ft 483 kts 208°
2026-04-29 16:25 -17.46443 -39.65989 32062 ft 483 kts 208°
2026-04-29 16:26 -17.52351 -39.69344 32063 ft 483 kts 208°
2026-04-29 16:26 -17.58260 -39.72702 32059 ft 483 kts 208°
2026-04-29 16:27 -17.64168 -39.76062 32058 ft 483 kts 208°
2026-04-29 16:27 -17.70078 -39.79426 32058 ft 483 kts 208°
2026-04-29 16:28 -17.75981 -39.82789 32063 ft 483 kts 208°
2026-04-29 16:28 -17.81887 -39.86156 32058 ft 483 kts 208°
2026-04-29 16:29 -17.87794 -39.89526 32055 ft 483 kts 208°
2026-04-29 16:29 -17.93659 -39.92875 32057 ft 483 kts 208°
2026-04-29 16:30 -17.99573 -39.96254 32059 ft 484 kts 209°
2026-04-29 16:30 -18.05488 -39.99622 32053 ft 484 kts 208°
2026-04-29 16:31 -18.11418 -40.02982 32050 ft 484 kts 208°
2026-04-29 16:31 -18.17352 -40.06347 32050 ft 484 kts 209°
2026-04-29 16:32 -18.23287 -40.09719 32048 ft 485 kts 209°
2026-04-29 16:32 -18.29218 -40.13093 32047 ft 485 kts 209°
2026-04-29 16:33 -18.38132 -40.18169 32047 ft 485 kts 209°
2026-04-29 16:33 -18.44032 -40.21532 32049 ft 485 kts 209°
2026-04-29 16:34 -18.49975 -40.24922 32047 ft 486 kts 209°
2026-04-29 16:34 -18.55917 -40.28315 32052 ft 486 kts 209°
2026-04-29 16:35 -18.61865 -40.31713 32040 ft 486 kts 209°
2026-04-29 16:35 -18.67811 -40.35114 32045 ft 486 kts 209°
2026-04-29 16:36 -18.73765 -40.38521 32045 ft 486 kts 209°
2026-04-29 16:36 -18.79708 -40.41924 32044 ft 486 kts 210°
2026-04-29 16:37 -18.85653 -40.45332 32046 ft 486 kts 210°
2026-04-29 16:37 -18.90588 -40.48163 32046 ft 486 kts 210°
2026-04-29 16:38 -18.97536 -40.52152 32042 ft 486 kts 210°
2026-04-29 16:38 -19.03475 -40.55564 32046 ft 486 kts 210°
2026-04-29 16:39 -19.09373 -40.58956 32049 ft 486 kts 210°
2026-04-29 16:39 -19.15305 -40.62370 32048 ft 485 kts 210°
2026-04-29 16:40 -19.21246 -40.65793 32045 ft 485 kts 210°
2026-04-29 16:40 -19.27174 -40.69211 32048 ft 485 kts 210°
2026-04-29 16:41 -19.33098 -40.72628 32047 ft 485 kts 210°
2026-04-29 16:41 -19.39021 -40.76049 32044 ft 485 kts 210°
2026-04-29 16:42 -19.44946 -40.79474 32040 ft 485 kts 210°
2026-04-29 16:42 -19.50874 -40.82903 32037 ft 485 kts 210°